Location: Orient Land Trust / Valley View Hot Springs
(38.1923°N, 105.8154°W)
Time: 02:06:57
(UTC-06:00)

ISS - Visible Passes

Search period start: 30 September 2020 00:00
Search period end: 10 October 2020 00:00
Orbit: 419 x 421 km, 51.6° (Epoch: 30 September)

Date Brightness Start Highest point End Pass type
(mag) Time Alt. Az. Time Alt. Az. Time Alt. Az.
30 Sep -1.4 20:03:47 10° N 20:05:22 13° NNE 20:05:59 12° NNE visible
01 Oct -1.2 19:17:10 10° N 19:17:47 10° NNE 19:18:23 10° NNE visible
01 Oct -1.3 20:52:21 10° NW 20:53:30 18° NNW 20:53:30 18° NNW visible
02 Oct -2.2 20:05:16 10° NNW 20:07:59 22° NNE 20:08:06 22° NNE visible
03 Oct -1.7 19:18:14 10° NNW 19:20:29 16° NNE 19:22:43 10° ENE visible
03 Oct -1.4 20:54:19 10° NW 20:55:44 23° NW 20:55:44 23° NW visible
04 Oct -3.6 20:07:01 10° NW 20:10:20 54° NE 20:10:28 53° NE visible
05 Oct -2.8 19:19:50 10° NW 19:22:55 33° NNE 19:25:19 14° E visible
05 Oct -1.1 20:56:50 10° WNW 20:58:18 19° W 20:58:18 19° W visible
06 Oct -2.8 20:09:10 10° WNW 20:12:24 44° SW 20:13:16 35° S visible
07 Oct -3.7 19:21:43 10° NW 19:25:04 83° SW 19:28:23 10° SE visible
08 Oct -0.9 20:12:21 10° W 20:14:10 14° SW 20:15:58 10° SSW visible
09 Oct -1.5 19:24:10 10° WNW 19:26:57 24° SW 19:29:43 10° S visible
